Location: Rio de Janeiro
(22.9068°S, 43.1729°W)
Time: 20:14:36
(UTC-03:00)

ISS - Visible Passes

Search period start: 13 March 2026 00:00
Search period end: 23 March 2026 00:00
Orbit: 415 x 426 km, 51.6° (Epoch: 13 March)

Date Brightness Start Highest point End Pass type
(mag) Time Alt. Az. Time Alt. Az. Time Alt. Az.
14 Mar -3.4 04:47:23 22° NNW 04:49:21 62° NE 04:52:41 10° SE visible
15 Mar -1.6 04:03:02 25° ENE 04:03:02 25° ENE 04:05:15 10° ESE visible
16 Mar -2.6 04:51:33 26° WSW 04:51:54 27° SW 04:54:49 10° SSE visible
17 Mar -1.4 04:06:53 19° SSE 04:06:53 19° SSE 04:08:02 10° SSE visible
